Weather Roundup
Issued by NWS Chicago, IL

Home | Current Version | Previous Version | Graphics & Text | Print | Product List | Glossary On
Versions: 1 2 3 4 5 6 7 8 9 10 11 12 13 14 15 16 17 18 19 20 21 22 23 24 25 26 27 28 29 30 31 32 33 34 35 36 37 38 39 40 41 42 43 44 45 46 47 48 49 50
477
NZUS59 KLOT 311903
HRRLOT

CHICAGO AREA WEATHER ROUNDUP
NATIONAL WEATHER SERVICE CHICAGO/ROMEOVILLE IL
200 PM CDT WED AUG 31 2016

NOTE: "FAIR" INDICATES FEW OR NO CLOUDS BELOW 12,000 FEET WITH NO
SIGNIFICANT WEATHER AND/OR OBSTRUCTIONS TO VISIBILITY.

* THESE STATIONS ARE NOT UNDER NWS QUALITY CONTROL. THEY ALSO MAY NOT
  REPORT WEATHER SUCH AS PRECIPITATION OR FOG.

ILZ005-006-012>014-019>023-312000-
NORTHEAST ILLINOIS

CITY           SKY/WX    TMP DP  RH WIND       PRES   REMARKS
OHARE          CLOUDY    75  61  61 NE14      30.08S
MIDWAY         PTSUNNY   76  60  57 N14       30.07S
AURORA         MOSUNNY   79  64  60 N9        30.08S HX  81
LANSING*       MOSUNNY   74  63  69 N12G20    30.07S
JOLIET*        CLOUDY    78  64  60 NE7       30.07S HX  80
WAUKEGAN       MOSUNNY   73  56  54 NE12G21   30.09S
DUPAGE AIRPORT MOSUNNY   77  61  57 N12       30.08S
WHEELING       CLOUDY    75  60  59 NE12G24   30.09F
KANKAKEE*      PTSUNNY   79  65  61 N10G17    30.05S HX  81
MORRIS*        CLOUDY    77  65  65 CALM      30.05S
LEWIS AIRPORT* CLOUDY    76  66  70 NE8       30.07S
NORTHERLY ISL    N/A     71  63  75 N13         N/A
$$

WIZ051-052-058>065-066-070>072-312000-
SOUTHEAST WISCONSIN

CITY           SKY/WX    TMP DP  RH WIND       PRES   REMARKS
MILWAUKEE      MOSUNNY   74  53  48 NE15      30.12R
KENOSHA*       MOSUNNY   75  58  55 N14       30.11S
RACINE*        SUNNY     73  55  53 N15G23    30.12S
$$

INZ001>003-010>013-019-020-312000-
NORTHWEST INDIANA

CITY           SKY/WX    TMP DP  RH WIND       PRES   REMARKS
GARY*          PTSUNNY   75  63  64 N9G26     30.08R
MICHIGAN CITY* NOT AVBL
RENSSELAER*    NOT AVBL
VALPARAISO     PTSUNNY   74  65  73 N14G22    30.05S
$$

LMZ740>746-312000-
SOUTHERN LAKE MICHIGAN

STATION/POSITION TIME  SKY/WX   TEMP WIND        PRES    VSBY
                                AIR  DIR/SP/G
                 (UTC)          (F)  (DEG/KT/KT) (MB)    (MI)
HARRISON CRIB    1800            72  360/ 20/ 23   N/A
BURNHAM HARBOR   1800            73  330/ 14/ 16   N/A
CALUMET HARBOR   1800            74  340/ 13/ 17 1017.9R
BURNS HARBOR     1807            72  360/ 14/ 17 1018.3R
MICHIGAN CITY    1800            71  340/ 17/ 19   N/A
$$

ABBREVIATIONS USED IN REMARKS
   TC - TEMPERATURE IN CELSIUS
  WCI - WIND CHILL INDEX
   HX - HEAT INDEX
  VSB - VISIBILITY
$$




USA.gov is the U.S. government's official web portal to all federal, state and local government web resources and services.